User: anonymous   Login
Location: Austin
(30.3000°N, 97.7500°W)
Time: 12:16:43
(UTC-05:00)
Language:

MOS 1 Rocket - Orbit

View from above orbital plane
View from above orbital plane
View from above satellite
View from above satellite

Ground track
Ground track

The orbit is defined by the following mean orbital elements,

1 17528U          26162.25995573 +.00000000 +00000-0 +13295-3 0 00001
2 17528  97.4031 157.1598 0145574  77.9076 283.8392 14.54606052    05
Epoch (UTC): 11 June 2026 06:14:20
Eccentricity: 0.0145574
inclination: 97.4031°
perigee height: 607 km
apogee height: 814 km
right ascension of ascending node: 157.1598°
argument of perigee: 77.9076°
revolutions per day: 14.54606052
mean anomaly at epoch: 283.8392°

The dashed part of the orbit path shows where the satellite is in the earth's shadow,  

DLR